Time,TemperatureF,DewpointF,PressureIn,WindDirection,WindDirectionDegrees,WindSpeedMPH,WindSpeedGustMPH,Humidity,HourlyPrecipIn,Conditions,Clouds,dailyrainin,SoftwareType,DateUTC
2013-06-15 07:32:00,69.9,64.8,29.97,SSE,150,0.0,0.0,84,0.00,,,0.00,Wunderground v.1.15,2013-06-15 12:32:00,
2013-06-15 07:36:00,70.1,64.7,29.97,SSE,150,0.0,0.0,83,0.00,,,0.00,Wunderground v.1.15,2013-06-15 12:36:00,
2013-06-15 07:42:00,70.4,64.6,29.97,SSE,149,3.0,3.0,82,0.00,,,0.00,Wunderground v.1.15,2013-06-15 12:42:00,
2013-06-15 07:47:00,70.9,64.4,29.97,SSE,148,3.0,3.0,80,0.00,,,0.00,Wunderground v.1.15,2013-06-15 12:47:00,
2013-06-15 07:52:00,71.5,64.3,29.97,SSE,162,3.0,5.0,78,0.00,,,0.00,Wunderground v.1.15,2013-06-15 12:52:00,
2013-06-15 07:57:00,72.0,64.0,29.97,SE,146,0.0,4.0,76,0.00,,,0.00,Wunderground v.1.15,2013-06-15 12:57:00,
2013-06-15 08:03:00,72.5,64.5,29.97,South,171,3.0,5.0,76,0.00,,,0.00,Wunderground v.1.15,2013-06-15 13:03:00,
2013-06-15 08:08:00,73.2,66.3,29.97,SSE,156,1.0,5.0,79,0.00,,,0.00,Wunderground v.1.15,2013-06-15 13:08:00,
2013-06-15 08:13:00,73.7,64.1,29.97,SE,138,3.0,4.0,72,0.00,,,0.00,Wunderground v.1.15,2013-06-15 13:13:00,
2013-06-15 08:18:00,73.9,64.3,29.97,East,94,0.0,4.0,72,0.00,,,0.00,Wunderground v.1.15,2013-06-15 13:18:00,
2013-06-15 08:23:00,74.2,64.6,29.97,SSE,162,1.0,2.0,72,0.00,,,0.00,Wunderground v.1.15,2013-06-15 13:23:00,
2013-06-15 08:28:00,74.4,64.8,29.97,SW,219,0.0,2.0,72,0.00,,,0.00,Wunderground v.1.15,2013-06-15 13:28:00,
2013-06-15 08:33:00,74.7,64.7,29.96,South,169,2.0,3.0,71,0.00,,,0.00,Wunderground v.1.15,2013-06-15 13:33:00,
2013-06-15 08:38:00,75.1,64.6,29.96,ESE,117,0.0,4.0,70,0.00,,,0.00,Wunderground v.1.15,2013-06-15 13:38:00,
2013-06-15 08:43:00,75.3,64.4,29.96,SSW,200,0.0,3.0,69,0.00,,,0.00,Wunderground v.1.15,2013-06-15 13:43:00,
2013-06-15 08:48:00,75.8,65.3,29.97,SSW,200,0.0,3.0,70,0.00,,,0.00,Wunderground v.1.15,2013-06-15 13:48:00,
2013-06-15 08:53:00,76.1,66.4,29.97,SSW,200,0.0,1.0,72,0.00,,,0.00,Wunderground v.1.15,2013-06-15 13:53:00,
2013-06-15 08:58:00,76.3,66.6,29.97,SSW,200,0.0,1.0,72,0.00,,,0.00,Wunderground v.1.15,2013-06-15 13:58:00,
2013-06-15 09:03:00,76.3,66.6,29.98,SSW,200,0.0,0.0,72,0.00,,,0.00,Wunderground v.1.15,2013-06-15 14:03:00,
2013-06-15 09:08:00,76.3,66.6,29.98,SSW,200,0.0,1.0,72,0.00,,,0.00,Wunderground v.1.15,2013-06-15 14:08:00,
2013-06-15 09:13:00,76.3,66.2,29.98,SSW,200,0.0,0.0,71,0.00,,,0.00,Wunderground v.1.15,2013-06-15 14:13:00,
2013-06-15 09:18:00,76.3,66.2,29.99,SSW,200,0.0,1.0,71,0.00,,,0.00,Wunderground v.1.15,2013-06-15 14:18:00,
2013-06-15 09:23:00,76.3,66.2,29.99,North,360,5.0,5.0,71,0.00,,,0.00,Wunderground v.1.15,2013-06-15 14:23:00,
2013-06-15 09:28:00,76.3,65.8,29.99,NNW,346,0.0,7.0,70,0.00,,,0.00,Wunderground v.1.15,2013-06-15 14:28:00,
2013-06-15 09:33:00,75.4,65.3,30.00,North,5,2.0,9.0,71,0.00,,,0.00,Wunderground v.1.15,2013-06-15 14:33:00,
2013-06-15 09:38:00,74.7,65.1,30.00,NNE,21,2.0,9.0,72,0.00,,,0.00,Wunderground v.1.15,2013-06-15 14:38:00,
2013-06-15 09:43:00,74.2,64.6,30.00,NE,35,1.0,5.0,72,0.00,,,0.00,Wunderground v.1.15,2013-06-15 14:43:00,
2013-06-15 09:48:00,73.9,64.7,30.00,North,5,3.0,5.0,73,0.00,,,0.00,Wunderground v.1.15,2013-06-15 14:48:00,
2013-06-15 09:53:00,73.7,64.9,30.00,North,5,3.0,3.0,74,0.00,,,0.00,Wunderground v.1.15,2013-06-15 14:53:00,
2013-06-15 09:58:00,73.5,65.1,30.00,NNE,20,0.0,6.0,75,0.00,,,0.00,Wunderground v.1.15,2013-06-15 14:58:00,
2013-06-15 10:03:00,73.5,64.7,30.00,NNE,20,0.0,2.0,74,0.00,,,0.00,Wunderground v.1.15,2013-06-15 15:03:00,
2013-06-15 10:08:00,73.9,65.1,30.00,NE,34,0.0,2.0,74,0.00,,,0.00,Wunderground v.1.15,2013-06-15 15:08:00,
2013-06-15 10:13:00,74.0,65.2,30.00,NNE,14,0.0,4.0,74,0.00,,,0.00,Wunderground v.1.15,2013-06-15 15:13:00,
2013-06-15 10:18:00,73.9,64.7,29.99,NNE,24,0.0,5.0,73,0.00,,,0.00,Wunderground v.1.15,2013-06-15 15:18:00,
2013-06-15 10:23:00,73.7,64.9,29.99,SE,124,0.0,1.0,74,0.00,,,0.00,Wunderground v.1.15,2013-06-15 15:23:00,
2013-06-15 10:28:00,73.3,64.9,29.99,ENE,70,0.0,3.0,75,0.00,,,0.01,Wunderground v.1.15,2013-06-15 15:28:00,
2013-06-15 10:33:00,72.8,65.2,29.99,ENE,70,0.0,0.0,77,0.49,,,0.04,Wunderground v.1.15,2013-06-15 15:33:00,
2013-06-15 10:38:00,72.3,66.5,29.99,ENE,70,0.0,0.0,82,0.36,,,0.08,Wunderground v.1.15,2013-06-15 15:38:00,
2013-06-15 10:43:00,71.6,66.5,29.99,ENE,70,0.0,0.0,84,0.33,,,0.12,Wunderground v.1.15,2013-06-15 15:43:00,
2013-06-15 10:48:00,71.1,66.7,30.00,ENE,70,0.0,0.0,86,0.22,,,0.14,Wunderground v.1.15,2013-06-15 15:48:00,
2013-06-15 10:53:00,70.8,66.7,30.00,ENE,70,0.0,0.0,87,0.15,,,0.15,Wunderground v.1.15,2013-06-15 15:53:00,
2013-06-15 10:58:00,70.4,67.0,30.00,ENE,70,0.0,0.0,89,0.07,,,0.15,Wunderground v.1.15,2013-06-15 15:58:00,
2013-06-15 11:03:00,70.3,66.9,30.00,ENE,70,0.0,2.0,89,0.04,,,0.15,Wunderground v.1.15,2013-06-15 16:03:00,
2013-06-15 11:09:00,69.9,66.5,30.00,ENE,70,0.0,2.0,89,0.29,,,0.17,Wunderground v.1.15,2013-06-15 16:09:00,
2013-06-15 11:14:00,69.6,66.5,30.00,ENE,70,0.0,2.0,90,0.30,,,0.19,Wunderground v.1.15,2013-06-15 16:14:00,
2013-06-15 11:19:00,69.3,66.6,30.01,ENE,70,0.0,2.0,91,0.18,,,0.20,Wunderground v.1.15,2013-06-15 16:19:00,
2013-06-15 11:24:00,68.9,66.2,30.01,NNW,346,1.0,4.0,91,0.44,,,0.26,Wunderground v.1.15,2013-06-15 16:24:00,
2013-06-15 11:29:00,68.6,65.9,30.01,NNW,346,0.0,4.0,91,0.15,,,0.28,Wunderground v.1.15,2013-06-15 16:29:00,
2013-06-15 11:34:00,68.6,66.2,30.01,NNW,346,2.0,2.0,92,0.07,,,0.28,Wunderground v.1.15,2013-06-15 16:34:00,
2013-06-15 11:39:00,68.6,66.2,30.01,North,5,0.0,4.0,92,0.07,,,0.29,Wunderground v.1.15,2013-06-15 16:39:00,
2013-06-15 11:44:00,68.6,66.5,30.01,North,5,0.0,0.0,93,0.18,,,0.30,Wunderground v.1.15,2013-06-15 16:44:00,
2013-06-15 11:49:00,68.9,66.8,30.01,North,5,0.0,0.0,93,0.47,,,0.37,Wunderground v.1.15,2013-06-15 16:49:00,
2013-06-15 11:54:00,69.1,67.0,30.01,North,360,0.0,3.0,93,0.32,,,0.40,Wunderground v.1.15,2013-06-15 16:54:00,
2013-06-15 11:59:00,69.1,67.0,30.01,North,360,0.0,4.0,93,0.09,,,0.40,Wunderground v.1.15,2013-06-15 16:59:00,
2013-06-15 12:04:00,68.3,65.9,30.01,North,5,0.0,5.0,92,0.05,,,0.40,Wunderground v.1.15,2013-06-15 17:04:00,
2013-06-15 12:09:00,67.9,65.8,30.01,North,5,0.0,5.0,93,0.04,,,0.40,Wunderground v.1.15,2013-06-15 17:09:00,
2013-06-15 12:14:00,67.8,65.7,30.01,ESE,121,0.0,1.0,93,0.00,,,0.40,Wunderground v.1.15,2013-06-15 17:14:00,
2013-06-15 12:19:00,67.8,65.7,29.99,ESE,115,0.0,3.0,93,0.00,,,0.40,Wunderground v.1.15,2013-06-15 17:19:00,
2013-06-15 12:24:00,67.6,65.5,29.99,ESE,115,0.0,0.0,93,0.00,,,0.40,Wunderground v.1.15,2013-06-15 17:24:00,
2013-06-15 12:29:00,67.6,65.5,29.99,ESE,115,0.0,3.0,93,0.00,,,0.40,Wunderground v.1.15,2013-06-15 17:29:00,
2013-06-15 12:34:00,67.6,65.5,29.98,ESE,115,0.0,0.0,93,0.00,,,0.40,Wunderground v.1.15,2013-06-15 17:34:00,
2013-06-15 12:39:00,67.6,65.8,29.98,ESE,115,0.0,0.0,94,0.00,,,0.40,Wunderground v.1.15,2013-06-15 17:39:00,
2013-06-15 12:44:00,67.6,65.8,29.98,ESE,115,0.0,2.0,94,0.00,,,0.40,Wunderground v.1.15,2013-06-15 17:44:00,
2013-06-15 12:49:00,67.8,66.0,29.99,ESE,115,0.0,2.0,94,0.00,,,0.40,Wunderground v.1.15,2013-06-15 17:49:00,
2013-06-15 12:54:00,67.8,66.0,29.99,ESE,115,0.0,0.0,94,0.00,,,0.41,Wunderground v.1.15,2013-06-15 17:54:00,
2013-06-15 12:59:00,67.8,66.0,29.99,ESE,115,0.0,2.0,94,0.00,,,0.41,Wunderground v.1.15,2013-06-15 17:59:00,
2013-06-15 13:04:00,67.8,66.0,30.00,SE,132,0.0,3.0,94,0.00,,,0.41,Wunderground v.1.15,2013-06-15 18:04:00,
2013-06-15 13:09:00,67.9,66.1,30.00,SE,132,1.0,3.0,94,0.13,,,0.43,Wunderground v.1.15,2013-06-15 18:09:00,
2013-06-15 13:14:00,68.4,66.6,30.00,South,186,0.0,10.0,94,0.21,,,0.44,Wunderground v.1.15,2013-06-15 18:14:00,
2013-06-15 13:20:00,68.3,66.5,30.02,ENE,71,1.0,2.0,94,0.13,,,0.45,Wunderground v.1.15,2013-06-15 18:20:00,
2013-06-15 13:25:00,67.9,66.1,30.02,North,5,4.0,7.0,94,0.14,,,0.47,Wunderground v.1.15,2013-06-15 18:25:00,
2013-06-15 13:30:00,67.8,65.7,30.02,NNW,340,0.0,2.0,93,0.15,,,0.48,Wunderground v.1.15,2013-06-15 18:30:00,
2013-06-15 13:35:00,67.8,65.7,30.00,East,98,0.0,4.0,93,0.30,,,0.52,Wunderground v.1.15,2013-06-15 18:35:00,
2013-06-15 13:41:00,67.8,65.7,30.00,East,101,0.0,3.0,93,0.43,,,0.56,Wunderground v.1.15,2013-06-15 18:41:00,
2013-06-15 13:46:00,67.6,65.2,30.00,SE,131,1.0,4.0,92,0.55,,,0.62,Wunderground v.1.15,2013-06-15 18:46:00,
2013-06-15 13:51:00,67.8,65.4,29.99,South,183,0.0,1.0,92,0.62,,,0.66,Wunderground v.1.15,2013-06-15 18:51:00,
2013-06-15 13:56:00,67.6,65.2,29.99,South,183,0.0,1.0,92,0.80,,,0.70,Wunderground v.1.15,2013-06-15 18:56:00,
2013-06-15 14:02:00,67.3,64.9,29.99,South,183,0.0,0.0,92,0.70,,,0.76,Wunderground v.1.15,2013-06-15 19:02:00,
2013-06-15 14:07:00,67.1,65.0,29.97,South,183,0.0,4.0,93,0.37,,,0.80,Wunderground v.1.15,2013-06-15 19:07:00,
2013-06-15 14:12:00,67.3,65.5,29.97,SSW,209,0.0,1.0,94,0.15,,,0.81,Wunderground v.1.15,2013-06-15 19:12:00,
2013-06-15 14:17:00,67.8,66.0,29.96,South,175,0.0,3.0,94,0.08,,,0.81,Wunderground v.1.15,2013-06-15 19:17:00,
2013-06-15 14:22:00,68.4,66.6,29.96,South,175,0.0,1.0,94,0.05,,,0.81,Wunderground v.1.15,2013-06-15 19:22:00,
2013-06-15 14:27:00,69.3,67.8,29.96,South,175,0.0,1.0,95,0.00,,,0.81,Wunderground v.1.15,2013-06-15 19:27:00,
2013-06-15 14:32:00,70.8,69.6,29.93,South,169,2.0,3.0,96,0.00,,,0.81,Wunderground v.1.15,2013-06-15 19:32:00,
2013-06-15 14:37:00,71.6,70.4,29.93,SE,144,2.0,5.0,96,0.00,,,0.81,Wunderground v.1.15,2013-06-15 19:37:00,
2013-06-15 14:42:00,72.1,70.6,29.93,SE,144,1.0,4.0,95,0.00,,,0.81,Wunderground v.1.15,2013-06-15 19:42:00,
2013-06-15 14:47:00,72.5,71.0,29.91,SE,144,2.0,4.0,95,0.00,,,0.81,Wunderground v.1.15,2013-06-15 19:47:00,
2013-06-15 14:52:00,73.3,72.1,29.91,SE,144,0.0,2.0,96,0.00,,,0.81,Wunderground v.1.15,2013-06-15 19:52:00,
2013-06-15 14:57:00,74.2,72.7,29.91,SE,144,0.0,3.0,95,0.00,,,0.81,Wunderground v.1.15,2013-06-15 19:57:00,
2013-06-15 15:02:00,73.9,72.1,29.90,South,183,0.0,4.0,94,0.00,,,0.81,Wunderground v.1.15,2013-06-15 20:02:00,
2013-06-15 15:07:00,74.2,72.4,29.90,South,183,0.0,4.0,94,0.00,,,0.81,Wunderground v.1.15,2013-06-15 20:07:00,
2013-06-15 15:12:00,74.0,71.5,29.90,South,182,0.0,4.0,92,0.00,,,0.81,Wunderground v.1.15,2013-06-15 20:12:00,
2013-06-15 15:18:00,74.4,71.9,29.89,ESE,123,5.0,5.0,92,0.00,,,0.81,Wunderground v.1.15,2013-06-15 20:18:00,
2013-06-15 15:23:00,74.6,71.8,29.89,South,176,0.0,5.0,91,0.00,,,0.81,Wunderground v.1.15,2013-06-15 20:23:00,
2013-06-15 15:28:00,74.7,71.6,29.89,South,175,3.0,5.0,90,0.00,,,0.81,Wunderground v.1.15,2013-06-15 20:28:00,
2013-06-15 15:33:00,74.7,71.6,29.88,South,171,2.0,3.0,90,0.00,,,0.81,Wunderground v.1.15,2013-06-15 20:33:00,
2013-06-15 15:38:00,74.9,71.8,29.88,SSE,147,0.0,4.0,90,0.00,,,0.81,Wunderground v.1.15,2013-06-15 20:38:00,
2013-06-15 15:43:00,74.9,71.4,29.88,SSE,163,4.0,4.0,89,0.00,,,0.81,Wunderground v.1.15,2013-06-15 20:43:00,
2013-06-15 15:48:00,74.9,70.8,29.88,SSW,192,0.0,4.0,87,0.00,,,0.81,Wunderground v.1.15,2013-06-15 20:48:00,
2013-06-15 15:53:00,75.1,71.0,29.88,SSW,192,0.0,4.0,87,0.00,,,0.81,Wunderground v.1.15,2013-06-15 20:53:00,
2013-06-15 15:58:00,74.9,70.8,29.88,SSW,192,0.0,4.0,87,0.00,,,0.81,Wunderground v.1.15,2013-06-15 20:58:00,
2013-06-15 16:03:00,74.9,71.1,29.89,SSW,192,0.0,1.0,88,0.00,,,0.81,Wunderground v.1.15,2013-06-15 21:03:00,
2013-06-15 16:08:00,74.7,70.9,29.89,SSW,192,0.0,1.0,88,0.00,,,0.81,Wunderground v.1.15,2013-06-15 21:08:00,
2013-06-15 16:13:00,74.6,71.1,29.89,SSW,192,0.0,0.0,89,0.00,,,0.81,Wunderground v.1.15,2013-06-15 21:13:00,
2013-06-15 16:18:00,74.4,70.9,29.91,SSW,192,0.0,0.0,89,0.00,,,0.81,Wunderground v.1.15,2013-06-15 21:18:00,
2013-06-15 16:23:00,74.2,70.7,29.91,SSW,192,0.0,0.0,89,0.00,,,0.81,Wunderground v.1.15,2013-06-15 21:23:00,
2013-06-15 16:28:00,73.9,70.8,29.91,SSW,192,0.0,0.0,90,0.00,,,0.81,Wunderground v.1.15,2013-06-15 21:28:00,
2013-06-15 16:33:00,73.7,70.6,29.92,SSW,192,0.0,0.0,90,0.00,,,0.81,Wunderground v.1.15,2013-06-15 21:33:00,
2013-06-15 16:38:00,73.3,70.2,29.92,SSW,192,0.0,0.0,90,0.00,,,0.81,Wunderground v.1.15,2013-06-15 21:38:00,
2013-06-15 16:44:00,73.2,70.4,29.92,SSW,192,0.0,0.0,91,0.00,,,0.81,Wunderground v.1.15,2013-06-15 21:44:00,
2013-06-15 16:49:00,73.0,70.2,29.93,SSW,192,0.0,0.0,91,0.00,,,0.81,Wunderground v.1.15,2013-06-15 21:49:00,
2013-06-15 16:54:00,72.8,70.0,29.93,SSW,192,0.0,0.0,91,0.00,,,0.81,Wunderground v.1.15,2013-06-15 21:54:00,
2013-06-15 16:59:00,72.8,70.3,29.93,SSW,192,0.0,0.0,92,0.00,,,0.81,Wunderground v.1.15,2013-06-15 21:59:00,
2013-06-15 17:04:00,72.7,70.2,29.91,SSW,192,0.0,0.0,92,0.00,,,0.81,Wunderground v.1.15,2013-06-15 22:04:00,
2013-06-15 17:09:00,72.5,70.0,29.91,SSW,192,0.0,0.0,92,0.00,,,0.81,Wunderground v.1.15,2013-06-15 22:09:00,
2013-06-15 17:14:00,72.5,70.0,29.91,SSW,192,0.0,0.0,92,0.00,,,0.81,Wunderground v.1.15,2013-06-15 22:14:00,
2013-06-15 17:19:00,72.5,70.0,29.91,SSW,192,0.0,0.0,92,0.00,,,0.81,Wunderground v.1.15,2013-06-15 22:19:00,
2013-06-15 17:24:00,72.3,69.8,29.91,SSW,192,0.0,0.0,92,0.00,,,0.81,Wunderground v.1.15,2013-06-15 22:24:00,
2013-06-15 17:30:00,72.5,70.4,29.91,SSW,192,2.0,2.0,93,0.00,,,0.81,Wunderground v.1.15,2013-06-15 22:30:00,
2013-06-15 17:35:00,72.5,70.4,29.93,NNW,348,3.0,5.0,93,0.00,,,0.81,Wunderground v.1.15,2013-06-15 22:35:00,
2013-06-15 17:40:00,72.5,70.4,29.93,NNW,348,0.0,5.0,93,0.00,,,0.81,Wunderground v.1.15,2013-06-15 22:40:00,
2013-06-15 17:45:00,72.3,70.2,29.93,NNW,348,0.0,2.0,93,0.00,,,0.81,Wunderground v.1.15,2013-06-15 22:45:00,
2013-06-15 17:51:00,72.1,70.0,29.95,NNW,341,6.0,6.0,93,0.00,,,0.81,Wunderground v.1.15,2013-06-15 22:51:00,
2013-06-15 17:56:00,71.8,70.9,29.95,North,355,5.0,7.0,97,0.00,,,0.81,Wunderground v.1.15,2013-06-15 22:56:00,
2013-06-15 18:01:00,71.6,69.5,29.95,NNW,345,3.0,6.0,93,0.00,,,0.81,Wunderground v.1.15,2013-06-15 23:01:00,
2013-06-15 18:06:00,71.6,69.5,29.95,NNW,344,1.0,6.0,93,0.00,,,0.81,Wunderground v.1.15,2013-06-15 23:06:00,
2013-06-15 18:11:00,71.5,69.1,29.95,NNW,346,2.0,3.0,92,0.00,,,0.81,Wunderground v.1.15,2013-06-15 23:11:00,
2013-06-15 18:16:00,71.3,68.9,29.95,NNW,346,6.0,6.0,92,0.00,,,0.81,Wunderground v.1.15,2013-06-15 23:16:00,
2013-06-15 18:21:00,71.1,68.7,29.96,North,355,4.0,5.0,92,0.00,,,0.81,Wunderground v.1.15,2013-06-15 23:21:00,
2013-06-15 18:26:00,70.9,68.1,29.96,North,355,3.0,6.0,91,0.00,,,0.81,Wunderground v.1.15,2013-06-15 23:26:00,
2013-06-15 18:31:00,70.9,68.1,29.96,North,355,3.0,4.0,91,0.00,,,0.81,Wunderground v.1.15,2013-06-15 23:31:00,
2013-06-15 18:37:00,70.8,67.7,29.96,North,5,9.0,14.0,90,0.00,,,0.81,Wunderground v.1.15,2013-06-15 23:37:00,
2013-06-15 18:42:00,70.6,67.5,29.96,North,351,6.0,8.0,90,0.00,,,0.81,Wunderground v.1.15,2013-06-15 23:42:00,
2013-06-15 18:47:00,70.3,67.2,29.95,NNE,25,2.0,8.0,90,0.00,,,0.81,Wunderground v.1.15,2013-06-15 23:47:00,
2013-06-15 18:52:00,70.1,67.0,29.95,NNW,347,3.0,5.0,90,0.00,,,0.81,Wunderground v.1.15,2013-06-15 23:52:00,
2013-06-15 18:57:00,69.9,66.8,29.95,North,351,1.0,9.0,90,0.00,,,0.81,Wunderground v.1.15,2013-06-15 23:57:00,
2013-06-15 19:02:00,69.8,66.7,29.96,North,355,6.0,6.0,90,0.00,,,0.81,Wunderground v.1.15,2013-06-16 00:02:00,
2013-06-15 19:07:00,69.6,66.5,29.96,North,355,2.0,9.0,90,0.00,,,0.81,Wunderground v.1.15,2013-06-16 00:07:00,
2013-06-15 19:12:00,69.4,66.7,29.96,NNW,342,2.0,4.0,91,0.00,,,0.81,Wunderground v.1.15,2013-06-16 00:12:00,
2013-06-15 19:17:00,69.4,66.7,29.96,NNW,344,0.0,6.0,91,0.00,,,0.81,Wunderground v.1.15,2013-06-16 00:17:00,
2013-06-15 19:22:00,69.3,66.6,29.96,North,355,3.0,3.0,91,0.00,,,0.81,Wunderground v.1.15,2013-06-16 00:22:00,
2013-06-15 19:27:00,69.1,66.4,29.96,North,355,0.0,4.0,91,0.00,,,0.81,Wunderground v.1.15,2013-06-16 00:27:00,
2013-06-15 19:32:00,69.1,66.4,29.99,North,355,0.0,1.0,91,0.00,,,0.81,Wunderground v.1.15,2013-06-16 00:32:00,
2013-06-15 19:37:00,69.1,66.7,29.99,North,355,2.0,3.0,92,0.00,,,0.81,Wunderground v.1.15,2013-06-16 00:37:00,
2013-06-15 19:42:00,69.1,66.7,29.99,North,355,0.0,2.0,92,0.00,,,0.81,Wunderground v.1.15,2013-06-16 00:42:00,
2013-06-15 19:47:00,68.9,66.5,29.99,North,355,2.0,5.0,92,0.00,,,0.81,Wunderground v.1.15,2013-06-16 00:47:00,
2013-06-15 19:52:00,68.9,66.5,29.99,North,355,3.0,4.0,92,0.00,,,0.81,Wunderground v.1.15,2013-06-16 00:52:00,
2013-06-15 19:57:00,68.9,66.5,29.99,North,351,0.0,5.0,92,0.00,,,0.81,Wunderground v.1.15,2013-06-16 00:57:00,
2013-06-15 20:02:00,68.8,66.4,29.99,North,349,3.0,4.0,92,0.00,,,0.81,Wunderground v.1.15,2013-06-16 01:02:00,
2013-06-15 20:07:00,68.8,66.4,29.99,North,351,2.0,5.0,92,0.00,,,0.82,Wunderground v.1.15,2013-06-16 01:07:00,
2013-06-15 20:12:00,68.6,66.2,29.99,North,351,2.0,4.0,92,0.00,,,0.82,Wunderground v.1.15,2013-06-16 01:12:00,
2013-06-15 20:17:00,68.4,66.0,29.98,NNW,348,4.0,5.0,92,0.00,,,0.82,Wunderground v.1.15,2013-06-16 01:17:00,
2013-06-15 20:22:00,68.3,66.2,29.98,NNW,347,0.0,7.0,93,0.00,,,0.82,Wunderground v.1.15,2013-06-16 01:22:00,
2013-06-15 20:27:00,68.1,66.0,29.98,NNW,346,2.0,7.0,93,0.00,,,0.82,Wunderground v.1.15,2013-06-16 01:27:00,
2013-06-15 20:32:00,68.1,66.0,29.97,NNW,346,0.0,2.0,93,0.00,,,0.82,Wunderground v.1.15,2013-06-16 01:32:00,
2013-06-15 20:37:00,67.9,65.8,29.97,NNW,346,2.0,2.0,93,0.00,,,0.82,Wunderground v.1.15,2013-06-16 01:37:00,
2013-06-15 20:43:00,67.8,65.7,29.97,NNW,346,0.0,2.0,93,0.00,,,0.82,Wunderground v.1.15,2013-06-16 01:43:00,
2013-06-15 20:48:00,67.8,65.7,29.98,NNW,346,1.0,2.0,93,0.00,,,0.82,Wunderground v.1.15,2013-06-16 01:48:00,
2013-06-15 20:53:00,67.6,65.5,29.98,NNW,346,0.0,3.0,93,0.00,,,0.83,Wunderground v.1.15,2013-06-16 01:53:00,
2013-06-15 20:58:00,67.6,65.5,29.98,NNW,346,0.0,3.0,93,0.00,,,0.83,Wunderground v.1.15,2013-06-16 01:58:00,
2013-06-15 21:03:00,67.4,65.6,29.96,NNW,346,0.0,1.0,94,0.00,,,0.83,Wunderground v.1.15,2013-06-16 02:03:00,
2013-06-15 21:08:00,67.4,65.6,29.96,NNW,346,0.0,1.0,94,0.00,,,0.83,Wunderground v.1.15,2013-06-16 02:08:00,
2013-06-15 21:13:00,67.4,65.6,29.96,NNW,346,0.0,2.0,94,0.00,,,0.83,Wunderground v.1.15,2013-06-16 02:13:00,
2013-06-15 21:18:00,67.4,65.6,29.98,NNW,346,0.0,2.0,94,0.00,,,0.83,Wunderground v.1.15,2013-06-16 02:18:00,
2013-06-15 21:23:00,67.3,65.5,29.98,NNW,346,0.0,0.0,94,0.00,,,0.83,Wunderground v.1.15,2013-06-16 02:23:00,
2013-06-15 21:28:00,67.4,65.6,29.98,NNW,346,0.0,2.0,94,0.00,,,0.83,Wunderground v.1.15,2013-06-16 02:28:00,
2013-06-15 21:33:00,67.4,65.6,29.99,NNW,346,0.0,0.0,94,0.00,,,0.83,Wunderground v.1.15,2013-06-16 02:33:00,
2013-06-15 21:38:00,67.4,65.6,29.99,NNW,346,0.0,0.0,94,0.00,,,0.83,Wunderground v.1.15,2013-06-16 02:38:00,
2013-06-15 21:43:00,67.4,65.6,29.99,NNW,346,0.0,0.0,94,0.00,,,0.83,Wunderground v.1.15,2013-06-16 02:43:00,
2013-06-15 21:48:00,67.4,65.6,30.00,NNW,346,0.0,0.0,94,0.00,,,0.83,Wunderground v.1.15,2013-06-16 02:48:00,
2013-06-15 21:53:00,67.4,65.9,30.00,NNW,346,0.0,0.0,95,0.00,,,0.83,Wunderground v.1.15,2013-06-16 02:53:00,
2013-06-15 21:58:00,67.4,65.9,30.00,NNW,346,0.0,0.0,95,0.00,,,0.83,Wunderground v.1.15,2013-06-16 02:58:00,
2013-06-15 22:03:00,67.4,65.9,30.01,NNW,346,0.0,0.0,95,0.00,,,0.83,Wunderground v.1.15,2013-06-16 03:03:00,
2013-06-15 22:08:00,67.6,66.1,30.01,NNW,346,0.0,0.0,95,0.00,,,0.84,Wunderground v.1.15,2013-06-16 03:08:00,
2013-06-15 22:13:00,67.6,66.1,30.01,NNW,346,0.0,0.0,95,0.00,,,0.84,Wunderground v.1.15,2013-06-16 03:13:00,
2013-06-15 22:18:00,67.4,65.9,30.00,NNW,346,0.0,0.0,95,0.04,,,0.85,Wunderground v.1.15,2013-06-16 03:18:00,
2013-06-15 22:24:00,67.4,65.9,30.00,NNW,346,0.0,0.0,95,0.04,,,0.85,Wunderground v.1.15,2013-06-16 03:24:00,
2013-06-15 22:29:00,67.4,65.9,30.00,NNW,346,0.0,0.0,95,0.04,,,0.85,Wunderground v.1.15,2013-06-16 03:29:00,
2013-06-15 22:34:00,67.4,65.9,29.99,NNW,346,0.0,0.0,95,0.04,,,0.85,Wunderground v.1.15,2013-06-16 03:34:00,
2013-06-15 22:39:00,67.4,65.9,29.99,NNW,346,0.0,0.0,95,0.00,,,0.85,Wunderground v.1.15,2013-06-16 03:39:00,
2013-06-15 22:44:00,67.4,65.9,29.99,NNW,346,0.0,0.0,95,0.00,,,0.85,Wunderground v.1.15,2013-06-16 03:44:00,
2013-06-15 22:49:00,67.4,65.9,29.97,NNW,346,0.0,1.0,95,0.00,,,0.85,Wunderground v.1.15,2013-06-16 03:49:00,
2013-06-15 22:54:00,67.3,65.8,29.97,NNW,346,0.0,0.0,95,0.00,,,0.85,Wunderground v.1.15,2013-06-16 03:54:00,
2013-06-15 22:59:00,67.3,65.8,29.97,NNW,346,0.0,0.0,95,0.00,,,0.85,Wunderground v.1.15,2013-06-16 03:59:00,
2013-06-15 23:01:00,67.3,65.8,29.97,NNW,346,2.0,3.0,95,0.00,,,0.85,Wunderground v.1.15,2013-06-16 04:01:00,
2013-06-15 23:03:00,67.3,65.8,29.95,NNW,346,0.0,3.0,95,0.00,,,0.85,Wunderground v.1.15,2013-06-16 04:03:00,
2013-06-15 23:08:00,67.3,65.8,29.95,NNW,346,0.0,3.0,95,0.00,,,0.85,Wunderground v.1.15,2013-06-16 04:08:00,
2013-06-15 23:13:00,67.3,65.8,29.95,SSE,150,1.0,3.0,95,0.00,,,0.85,Wunderground v.1.15,2013-06-16 04:13:00,
2013-06-15 23:18:00,67.4,65.9,29.95,SE,135,3.0,5.0,95,0.00,,,0.85,Wunderground v.1.15,2013-06-16 04:18:00,
2013-06-15 23:23:00,67.4,65.9,29.95,SSE,151,3.0,9.0,95,0.00,,,0.85,Wunderground v.1.15,2013-06-16 04:23:00,
2013-06-15 23:28:00,67.3,65.8,29.95,SSE,155,7.0,9.0,95,0.00,,,0.85,Wunderground v.1.15,2013-06-16 04:28:00,
2013-06-15 23:33:00,67.4,65.9,29.94,SE,130,3.0,7.0,95,0.00,,,0.85,Wunderground v.1.15,2013-06-16 04:33:00,
2013-06-15 23:38:00,67.4,65.9,29.94,SSE,150,1.0,7.0,95,0.00,,,0.85,Wunderground v.1.15,2013-06-16 04:38:00,
2013-06-15 23:43:00,67.4,65.9,29.94,SSE,150,0.0,2.0,95,0.00,,,0.85,Wunderground v.1.15,2013-06-16 04:43:00,
2013-06-15 23:48:00,67.4,65.9,29.91,SSE,150,0.0,2.0,95,0.00,,,0.85,Wunderground v.1.15,2013-06-16 04:48:00,
2013-06-15 23:54:00,67.4,65.9,29.91,SE,146,1.0,7.0,95,0.00,,,0.85,Wunderground v.1.15,2013-06-16 04:54:00,
2013-06-15 23:59:00,67.4,65.9,29.91,SSE,156,4.0,7.0,95,0.00,,,0.85,Wunderground v.1.15,2013-06-16 04:59:00,